Location: Arran
(51.9410°N, 101.7372°W)
Time: 07:19:27
(UTC+00:00)

SWISSCUBE - Pass Details

Date: 20 May 2025
Orbit: 685 x 693 km, 98.4° (Epoch: 20 June)

Event Time Altitude Azimuth Distance (km) Brightness Sun altitude
Rises 04:16:27 0° 30° (NNE) 3,077 ? -11.2°
Reaches altitude 10° 04:19:55 10° 57° (ENE) 2,155 ? -11.5°
Maximum altitude 04:22:13 13° 86° (E) 1,925 ? -11.7°
Enters shadow 04:24:08 11° 112° (ESE) 2,082 ? -11.9°
